Location: Hall+in+Tirol
(47.2830°N, 11.5170°E)
Time: 08:21:27
(UTC+02:00)

Gurwin Techsat 1B - Visible Passes

Search period start: 22 September 2017 00:00
Search period end: 02 October 2017 00:00
Orbit: 811 x 815 km, 98.6° (Epoch: 21 September)

Date Brightness Start Highest point End Pass type
(mag) Time Alt. Az. Time Alt. Az. Time Alt. Az.
22 Sep 11.2 01:57:33 10° NE 01:58:35 13° ENE 01:58:35 13° ENE visible
22 Sep 9.5 03:36:14 10° N 03:39:47 42° N 03:39:47 42° N visible
22 Sep 10.5 05:18:16 10° NNW 05:20:35 13° NW 05:20:59 13° WNW visible
23 Sep 9.9 03:13:24 10° NNE 03:16:35 37° NNE 03:16:35 37° NNE visible
23 Sep 10.2 04:54:29 10° NNW 04:57:47 19° NW 04:57:47 19° NW visible
24 Sep 10.4 02:50:42 10° NNE 02:53:23 28° NE 02:53:23 28° NE visible
24 Sep 9.9 04:31:08 10° N 04:34:35 26° NW 04:34:35 26° NW visible
25 Sep 10.8 02:28:10 10° NNE 02:30:11 20° NE 02:30:11 20° NE visible
25 Sep 9.7 04:07:59 10° N 04:11:23 33° NNW 04:11:23 33° NNW visible
26 Sep 11.2 02:05:55 10° NE 02:06:59 14° NE 02:06:59 14° NE visible
26 Sep 9.8 03:44:58 10° N 03:48:11 36° N 03:48:11 36° N visible
26 Sep 10.7 05:27:42 10° NW 05:29:08 11° NW 05:29:23 11° NW visible
27 Sep 10.0 03:22:06 10° NNE 03:24:59 33° NNE 03:24:59 33° NNE visible
27 Sep 10.4 05:03:30 10° NNW 05:06:11 16° NW 05:06:11 16° NW visible
28 Sep 10.5 02:59:21 10° NNE 03:01:46 27° NNE 03:01:46 27° NNE visible
28 Sep 10.1 04:40:01 10° N 04:42:59 22° NW 04:42:59 22° NW visible
29 Sep 10.9 02:36:44 10° NNE 02:38:35 20° NE 02:38:35 20° NE visible
29 Sep 10.0 04:16:48 10° N 04:19:46 27° NNW 04:19:46 27° NNW visible
30 Sep 11.3 02:14:21 10° NE 02:15:23 14° NE 02:15:23 14° NE visible
30 Sep 10.0 03:53:45 10° N 03:56:34 30° N 03:56:34 30° N visible
01 Oct 10.2 03:30:49 10° NNE 03:33:23 29° N 03:33:23 29° N visible
01 Oct 10.6 05:12:34 10° NNW 05:14:34 14° NW 05:14:34 14° NW visible
